User: anonymous   Login
Location: Wilsall
(45.9940°N, 110.6590°W)
Time: 23:57:09
(UTC-06:00)
Language:

GP-B - Orbit

View from above orbital plane
View from above orbital plane
View from above satellite
View from above satellite

Ground track
Ground track

The orbit data is extracted from the following two-line orbital elements,

1 28230U 04014A   14298.61788991  .00001124  00000-0  15490-3 0  2002
2 28230 089.8803 138.1948 0002680 087.9782 272.1747 14.77694782566455
Epoch (UTC): 25 October 2014 14:49:45
Eccentricity: 0.0002680
inclination: 89.8803°
perigee height: 635 km
apogee height: 638 km
right ascension of ascending node: 138.1948°
argument of perigee: 87.9782°
revolutions per day: 14.77694782
mean anomaly at epoch: 272.1747°
orbit number at epoch: 56645

The dashed part of the orbit path shows where the satellite is in the earth's shadow,  

DLR